Location: Centerville
(32.8776°N, 96.6203°W)
Time: 04:27:20
(UTC+00:00)

Cosmos 2333 Rocket - Visible Passes

Search period start: 18 October 2021 00:00
Search period end: 28 October 2021 00:00
Orbit: 839 x 863 km, 70.8° (Epoch: 17 October)

Date Brightness Start Highest point End Pass type
(mag) Time Alt. Az. Time Alt. Az. Time Alt. Az.
18 Oct 4.9 11:33:49 10° NNE 11:36:47 14° NE 11:39:45 10° E visible
19 Oct 4.9 11:21:35 10° NNE 11:24:33 14° NE 11:27:31 10° E visible
20 Oct 4.9 11:09:20 10° NNE 11:12:20 14° NE 11:15:18 10° E visible
21 Oct 4.1 01:55:41 10° S 01:56:51 17° S 01:56:51 17° S visible
21 Oct 4.9 10:57:06 10° NNE 11:00:06 14° NE 11:03:04 10° E visible
22 Oct 3.1 01:43:27 10° S 01:46:40 34° SSE 01:46:40 34° SSE visible
22 Oct 4.9 10:44:52 10° NNE 10:47:51 14° NE 10:50:50 10° E visible
23 Oct 2.2 01:31:13 10° S 01:36:30 57° ESE 01:36:30 57° ESE visible
23 Oct 4.9 03:17:43 10° W 03:18:38 13° W 03:18:38 13° W visible
23 Oct 5.0 10:32:38 10° NNE 10:35:37 14° NE 10:38:36 10° E visible
24 Oct 2.2 01:18:58 10° S 01:24:29 57° ESE 01:26:20 39° NE visible
24 Oct 4.7 03:05:29 10° W 03:08:27 17° WNW 03:08:27 17° WNW visible
24 Oct 5.0 10:20:24 10° NNE 10:23:23 14° NE 10:26:22 10° E visible
24 Oct 2.2 12:02:27 10° NNW 12:08:12 72° WSW 12:13:55 10° SSE visible
25 Oct 2.2 01:06:44 10° S 01:12:15 57° ESE 01:16:04 20° NE visible
25 Oct 4.6 02:53:15 10° W 02:56:52 17° WNW 02:58:11 16° NW visible
25 Oct 5.0 10:08:09 10° NNE 10:11:09 14° NE 10:14:08 10° E visible
25 Oct 2.2 11:50:13 10° NNW 11:55:58 72° WSW 12:01:41 10° SSE visible
26 Oct 2.2 00:54:29 10° S 01:00:00 57° ESE 01:05:35 10° NNE visible
26 Oct 4.7 02:41:01 10° W 02:44:38 17° WNW 02:47:45 12° NNW visible
26 Oct 4.9 09:55:54 10° NNE 09:58:55 14° NE 10:01:54 10° E visible
26 Oct 2.2 11:37:59 10° NNW 11:43:44 72° WSW 11:49:27 10° SSE visible
27 Oct 2.2 00:42:16 10° S 00:47:46 57° ESE 00:53:21 10° NNE visible
27 Oct 4.7 02:28:46 10° W 02:32:24 17° WNW 02:36:04 10° NNW visible
27 Oct 4.9 09:43:40 10° NNE 09:46:41 14° NE 09:49:41 10° E visible
27 Oct 2.2 11:25:45 10° NNW 11:31:30 72° WSW 11:37:12 10° SSE visible
